#timestamp,LO_Frequency,Hit,StdDev 
1660219215.8,286046996.6,N
1660219235.7,286046997.4,N
1660219255.5,286046997.5,N
1660219275.4,286046997.3,N
1660219295.2,286046996.8,N
1660219315.0,286046996.5,N
1660219315.9,286046996.5,N
1660219335.8,286046999.3,N
1660219355.6,286046999.5,N
1660219375.4,286046999.4,N
1660219395.3,286046998.6,N
1660219415.1,286047000.8,N
1660219435.9,286047000.5,N
1660219455.7,286046999.3,N
1660219475.5,286046999.1,N
1660219495.4,286046998.8,N
1660219515.2,286046998.4,N
1660219535.0,286046998.9,N
1660219536.0,286046998.9,N
1660219555.8,286046998.5,N
1660219575.6,286046998.9,N
1660219595.5,286046998.8,N
1660219615.3,286047001.1,N
1660219635.1,286047000.7,N
1660219655.9,286047000.6,N
1660219675.7,286047000.1,N
1660219695.6,286047000.4,N
1660219715.4,286046999.7,N
1660219735.2,286047002.4,N
1660219755.1,286047002.1,N
1660219756.0,286047002.1,N
1660219775.8,286047002.5,N
1660219795.6,286046999.9,N
1660219815.5,286047000.1,N
1660219835.3,286047000.2,N
1660219855.2,286047001.9,N
1660219875.9,286047002.5,N
1660219895.7,286047000.1,N
1660219915.6,286047000.3,N
1660219935.4,286047000.7,N
1660219955.2,286047000.9,N
1660219975.1,286046998.5,N
1660219976.0,286046998.5,N
1660219995.8,286046998.3,N
1660220015.7,286047000.8,N
1660220035.5,286046998.7,N
1660220055.3,286046998.8,N
1660220075.2,286046996.6,N
1660220095.0,286046999.6,N
1660220095.9,286046999.6,N
1660220115.7,286046996.6,N
1660220135.6,286046998.6,N
1660220155.4,286046998.9,N
1660220175.3,286046999.3,N
1660220195.1,286046998.8,N
1660220196.0,286046998.8,N
1660220215.8,286046998.8,N
1660220235.7,286046998.1,N
1660220255.5,286047000.4,N
1660220275.3,286046999.9,N
1660220295.2,286047001.0,N
1660220315.0,286047000.7,N
1660220315.9,286047000.7,N
1660220335.8,286047000.0,N
1660220355.6,286047000.2,N
1660220375.5,286047002.5,N
1660220395.3,286047002.1,N
1660220415.1,286047001.6,N
1660220435.9,286047002.8,N
1660220455.7,286047002.5,N
1660220475.5,286047001.5,N
1660220495.4,286046999.8,N
1660220515.2,286047002.3,N
1660220535.1,286046999.9,N
1660220536.0,286046999.9,N
1660220555.8,286047000.4,N
1660220575.6,286047002.3,N
1660220595.5,286047002.6,N
1660220615.3,286047001.6,N
1660220635.1,286047001.7,N
1660220655.9,286047004.2,N
1660220675.7,286047003.5,N
1660220695.6,286047004.1,N
1660220715.4,286047005.9,Y
1660220735.3,286047003.9,P
1660220755.1,286047001.6,N
1660220756.0,286047001.6,N
1660220775.8,286047001.6,N
1660220795.7,286047001.8,N
1660220815.5,286047003.9,Y
1660220835.4,286047000.1,P
1660220855.2,286047000.6,N
1660220875.0,286046999.9,N
1660220875.9,286046999.9,N
1660220895.8,286047001.2,N
1660220915.6,286047000.5,N
1660220935.4,286047000.2,N
1660220955.3,286047000.9,N
1660220975.1,286047000.5,N
1660220995.9,286047000.4,N
1660221015.7,286047001.2,N
1660221035.5,286047000.7,N
1660221055.4,286046999.9,N
1660221075.2,286046999.8,N
1660221095.1,286047002.3,Y
1660221096.0,286047002.3,P
1660221115.8,286046998.2,N
1660221135.6,286047000.8,N
1660221155.5,286046998.2,N
1660221175.3,286047000.9,N
1660221195.1,286046998.4,N
1660221215.9,286046996.5,N
1660221235.7,286046999.1,N
1660221255.6,286046998.8,N
1660221275.4,286046997.0,N
1660221295.2,286046997.4,N
1660221315.1,286046997.7,N
1660221316.0,286046997.7,N
1660221335.8,286046999.1,N
1660221355.6,286046997.1,N
1660221375.5,286046997.6,N
1660221395.3,286046997.9,N
1660221415.2,286046995.1,Y
1660221435.9,286046999.5,P
1660221455.7,286046999.2,N
1660221475.6,286046999.5,N
1660221495.4,286046999.2,N
1660221515.2,286046999.1,N
1660221535.1,286046999.0,Y
1660221536.0,286046999.0,P
1660221555.8,286046999.3,P
1660221575.7,286046999.5,P
1660221595.5,286046998.1,Y
1660221615.3,286047001.0,P
1660221635.2,286047001.2,N
1660221655.0,286047000.4,N
1660221655.9,286047000.4,N
1660221675.8,286047000.6,N
1660221695.6,286047000.0,N
1660221715.4,286047001.1,N
1660221735.3,286047001.1,N
1660221755.1,286047000.5,N
1660221775.9,286047002.0,Y
1660221795.7,286047004.3,P
1660221815.5,286047004.1,N
1660221835.4,286047001.3,N
1660221855.2,286047001.5,N
1660221875.0,286047000.2,N
1660221875.9,286047000.2,N
1660221895.8,286046999.9,N
1660221915.6,286047001.0,N
1660221935.4,286047000.9,N
1660221955.3,286047001.0,N
1660221975.1,286047002.2,N
1660221995.9,286047002.0,N
1660222015.7,286047001.6,N
1660222035.5,286047001.8,N
1660222055.4,286047001.9,N
1660222075.2,286047001.6,N
1660222095.0,286047002.2,N
1660222095.9,286047002.2,N
1660222115.8,286047004.2,Y
1660222135.6,286047001.9,P
1660222155.5,286047004.3,P
1660222175.3,286047004.4,P
1660222195.1,286047002.0,N
1660222215.9,286047002.2,N
1660222235.7,286047002.3,N
1660222255.6,286046999.8,N
1660222275.4,286047000.4,N
1660222295.2,286047000.5,N
1660222315.1,286047001.1,N
1660222316.0,286047001.1,N
1660222335.8,286047001.2,N
1660222355.6,286046998.8,N
1660222375.5,286046999.1,N
1660222395.3,286046998.2,N
1660222415.2,286046996.5,N
1660222435.9,286046996.9,N
1660222455.7,286046998.7,N
1660222475.6,286046998.4,N
1660222495.4,286047001.1,N
1660222515.3,286047000.5,N
1660222535.1,286047000.5,N
1660222536.0,286047000.5,N
1660222555.8,286046999.9,N
1660222575.7,286047000.5,N
1660222595.5,286047002.8,N
1660222615.3,286047002.2,N
1660222635.2,286047001.7,N
1660222655.0,286047004.2,N
1660222655.9,286047004.2,N
1660222675.8,286047001.6,N
1660222695.6,286047003.7,N
1660222715.4,286047004.1,N
1660222735.3,286047004.2,N
1660222755.1,286047005.9,N
1660222775.9,286047006.0,N
1660222795.7,286047003.3,N
